EW8326 Hajeren NO current weather conditions

sailwx.info

Wind from 175 at 6 knots gusting 9

Air temperature 2.8° C
Dewpoint 2.6° C

Last reported at 2020-Jan-26 15:07 UTC.
Time now 2020-Jan-27 13:29 UTC

Location: N 59°33' E 009°57'.
View on Google Maps.

See reports from other nearby stations

  
Tides and Currents Weather Stations Pressure Air Temp Water Temp Dewpoint Dewpoint Depression Visibility Wind Speed Wind Dir Waves Ship Positions
date/time (UTC)wind fromknots sea level pressurealtimeterstation pressurevisibilityair tempwater tempwave heightnotes
2020-Jan-26 15:07 175 6 gusting 9 2.8
2020-Jan-26 14:58 215 5 gusting 6 2.8
2020-Jan-26 14:49 218 6 gusting 7 2.8
2020-Jan-26 14:40 229 6 gusting 7 3.3
2020-Jan-26 14:31 227 6 gusting 10 3.3
2020-Jan-26 14:22 217 5 gusting 11 3.9
2020-Jan-26 14:13 224 6 gusting 11 4.4
2020-Jan-26 14:04 209 6 gusting 9 3.9
2020-Jan-26 13:55 223 9 gusting 13 4.4
2020-Jan-26 13:46 204 9 gusting 14 4.4
2020-Jan-26 13:37 208 8 gusting 10 4.4
2020-Jan-26 13:28 198 7 gusting 9 3.9
2020-Jan-26 13:19 231 6 gusting 9 4.4
2020-Jan-26 13:10 262 6 gusting 8 3.9
2020-Jan-26 13:01 248 6 gusting 7 3.9
2020-Jan-26 12:52 203 6 gusting 8 3.9
2020-Jan-26 12:43 191 6 gusting 8 3.9
2020-Jan-26 12:35 207 6 gusting 7 3.9
2020-Jan-26 12:25 225 7 gusting 9 3.9
2020-Jan-26 12:16 190 7 gusting 9 3.9
2020-Jan-26 12:07 144 6 gusting 8 3.9
2020-Jan-26 11:58 216 6 gusting 8 3.9
2020-Jan-26 11:49 199 7 gusting 9 3.3
2020-Jan-26 11:40 220 7 gusting 9 3.3
2020-Jan-26 11:31 206 6 gusting 9 3.3
2020-Jan-26 11:22 230 8 gusting 9 3.3
2020-Jan-26 11:13 260 9 gusting 13 3.3
2020-Jan-26 11:04 285 10 gusting 13 3.3
2020-Jan-26 10:55 230 7 gusting 12 3.3
2020-Jan-26 10:46 263 6 gusting 9 2.8
2020-Jan-26 10:37 224 6 gusting 10 2.8
2020-Jan-26 10:28 245 9 gusting 13 2.8
2020-Jan-26 10:19 231 11 gusting 14 2.2
2020-Jan-26 10:10 251 8 gusting 13 2.2
2020-Jan-26 10:01 245 7 gusting 13 2.2
2020-Jan-26 09:52 241 7 gusting 10 2.2
2020-Jan-26 09:43 196 6 gusting 13 1.7
2020-Jan-26 09:34 231 6 gusting 12 1.7
2020-Jan-26 09:25 234 6 gusting 8 1.7
2020-Jan-26 09:16 227 6 gusting 9 1.7
2020-Jan-26 09:07 224 7 gusting 7 1.1
2020-Jan-26 08:58 202 5 gusting 6 1.1
2020-Jan-26 08:49 195 4 gusting 5 1.1
2020-Jan-26 08:40 211 3 gusting 4 1.1
2020-Jan-26 08:31 219 3 gusting 4 1.1
2020-Jan-26 08:22 217 3 gusting 4 1.1
2020-Jan-26 08:13 224 5 gusting 6 1.1
2020-Jan-26 08:04 226 6 gusting 6 1.1
2020-Jan-26 07:55 242 4 gusting 7 1.1
2020-Jan-26 07:46 224 5 gusting 11 1.1
2020-Jan-26 07:37 193 6 gusting 11 1.1
2020-Jan-26 07:28 218 4 gusting 5 1.1
2020-Jan-26 07:19 206 6 gusting 6 1.1
2020-Jan-26 07:10 195 3 gusting 6 1.1
2020-Jan-26 07:01 179 3 gusting 4 1.1
2020-Jan-26 06:52 190 1 gusting 3 1.1
2020-Jan-26 06:43 219 0 gusting 2 1.1
2020-Jan-26 06:34 225 1.1
2020-Jan-26 06:25 206 1.7
2020-Jan-26 06:16 181 0 gusting 6 1.7
2020-Jan-26 06:07 181 5 gusting 6 1.7
2020-Jan-26 05:58 207 1 gusting 5 1.7
2020-Jan-26 05:49 219 0 gusting 5 1.1
2020-Jan-26 05:40 198 1.1
2020-Jan-26 05:31 194 0 gusting 3 1.1
2020-Jan-26 05:22 207 0 gusting 3 1.1
2020-Jan-26 05:13 213 1 gusting 3 1.1
2020-Jan-26 05:04 135 1.1
2020-Jan-26 04:55 193 0 gusting 4 1.1
2020-Jan-26 04:46 192 3 gusting 5 1.7
2020-Jan-26 04:37 191 3 gusting 3 1.7
2020-Jan-26 04:28 187 2 gusting 3 1.7
2020-Jan-26 04:19 185 2 gusting 3 2.2
2020-Jan-26 04:10 231 2 gusting 3 2.2
2020-Jan-26 04:01 337 0 gusting 1 2.2
2020-Jan-26 03:52 314 2.2
2020-Jan-26 03:43 202 1 gusting 3 2.2
2020-Jan-26 03:34 206 3 gusting 4 2.2
2020-Jan-26 03:25 193 4 gusting 8 2.8
2020-Jan-26 03:16 199 5 gusting 8 2.8
2020-Jan-26 03:07 184 6 gusting 6 3.3
2020-Jan-26 02:58 177 5 gusting 7 2.8
2020-Jan-26 02:49 159 6 gusting 9 2.8
2020-Jan-26 02:40 186 6 gusting 8 2.8
2020-Jan-26 02:31 177 6 gusting 8 2.8
2020-Jan-26 02:22 188 6 gusting 11 3.3
2020-Jan-26 02:13 209 7 gusting 11 3.3
2020-Jan-26 02:04 213 6 gusting 7 2.8
2020-Jan-26 01:55 206 6 gusting 9 2.8
2020-Jan-26 01:46 201 6 gusting 9 2.8
2020-Jan-26 01:37 211 6 gusting 10 2.8
2020-Jan-26 01:28 218 7 gusting 10 2.8
2020-Jan-26 01:19 274 6 gusting 11 2.8
2020-Jan-26 01:10 229 10 gusting 12 2.8
2020-Jan-26 01:01 231 7 gusting 12 2.8
2020-Jan-26 00:52 226 7 gusting 9 2.8
2020-Jan-26 00:43 212 6 gusting 7 2.8
2020-Jan-26 00:34 228 6 gusting 9 2.8
2020-Jan-26 00:25 205 6 gusting 7 2.8
2020-Jan-26 00:16 219 5 gusting 6 2.8
2020-Jan-26 00:07 183 6 gusting 6 2.8
2020-Jan-25 23:58 187 6 gusting 8 2.8
2020-Jan-25 23:49 174 5 gusting 7 2.8
2020-Jan-25 23:40 140 4 gusting 6 2.8
2020-Jan-25 23:31 132 5 gusting 7 2.8
2020-Jan-25 23:22 203 6 gusting 8 2.8
2020-Jan-25 23:13 204 8 gusting 11 2.8
2020-Jan-25 23:04 189 7 gusting 8 2.8
2020-Jan-25 22:55 198 6 gusting 9 2.8
2020-Jan-25 22:46 191 7 gusting 10 2.8
2020-Jan-25 22:37 204 6 gusting 9 2.8
2020-Jan-25 22:28 191 6 gusting 9 2.8
2020-Jan-25 22:19 205 6 gusting 8 2.8
2020-Jan-25 22:10 222 6 gusting 8 2.8
2020-Jan-25 22:01 229 6 gusting 9 2.8
2020-Jan-25 21:52 229 7 gusting 9 2.8
2020-Jan-25 21:43 228 7 gusting 12 2.8
2020-Jan-25 21:34 224 7 gusting 12 3.3
2020-Jan-25 21:25 250 8 gusting 15 3.3
2020-Jan-25 21:16 230 9 gusting 15 2.8
2020-Jan-25 21:07 298 6 gusting 10 2.8
2020-Jan-25 20:58 227 10 gusting 13 2.2
2020-Jan-25 20:49 214 10 gusting 13 2.2
2020-Jan-25 20:31 213 10 gusting 13 2.2
2020-Jan-25 20:22 223 12 gusting 14 2.2
2020-Jan-25 20:13 223 13 gusting 14 2.2
2020-Jan-25 20:04 222 13 gusting 14 2.2
2020-Jan-25 19:55 196 11 gusting 14 2.2
2020-Jan-25 19:46 216 12 gusting 15 2.2
2020-Jan-25 19:37 197 14 gusting 19 2.2
2020-Jan-25 19:28 199 12 gusting 14 2.2
2020-Jan-25 19:19 197 12 gusting 16 2.2
2020-Jan-25 19:10 229 15 gusting 18 2.2
2020-Jan-25 19:01 221 12 gusting 15 1.7
2020-Jan-25 18:52 213 13 gusting 16 1.7
2020-Jan-25 18:43 209 13 gusting 15 1.7
2020-Jan-25 18:34 222 12 gusting 16 1.7
2020-Jan-25 18:25 230 9 gusting 16 1.7
2020-Jan-25 18:16 229 9 gusting 13 1.7
2020-Jan-25 18:07 351 13 gusting 13 1.7
2020-Jan-25 17:58 202 11 gusting 13 1.7
2020-Jan-25 17:49 208 10 gusting 13 1.7
2020-Jan-25 17:40 220 10 gusting 13 1.7
2020-Jan-25 17:31 213 11 gusting 13 1.7
2020-Jan-25 17:22 217 12 gusting 15 1.7
2020-Jan-25 17:13 260 11 gusting 14 1.7
2020-Jan-25 17:04 307 10 gusting 15 1.7
2020-Jan-25 16:55 219 12 gusting 14 1.7
2020-Jan-25 16:46 225 10 gusting 13 1.7
2020-Jan-25 16:37 213 11 gusting 16 1.7
2020-Jan-25 16:29 223 10 gusting 14 1.7
2020-Jan-25 16:19 213 8 gusting 12 1.7
2020-Jan-25 16:10 255 6 gusting 8 1.7
2020-Jan-25 15:32 230 7 gusting 10 2.2
2020-Jan-25 15:23 234 6 gusting 8 2.2
2020-Jan-25 15:14 205 6 gusting 7 2.2
2020-Jan-25 15:05 191 7 gusting 14 2.8
2020-Jan-25 14:56 205 8 gusting 14 2.8
2020-Jan-25 14:47 202 5 gusting 6 2.8
2020-Jan-25 14:29 207 4 gusting 9 2.8
2020-Jan-25 14:20 220 6 gusting 9 2.8
2020-Jan-25 14:11 197 3 gusting 7 2.8
2020-Jan-25 14:02 172 3 gusting 5 2.8
2020-Jan-25 13:53 190 4 gusting 6 2.8
2020-Jan-25 13:44 187 5 gusting 6 2.2
2020-Jan-25 13:35 222 6 gusting 8 2.2
2020-Jan-25 13:26 178 6 gusting 7 2.2
2020-Jan-25 13:17 175 5 gusting 6 2.2
2020-Jan-25 13:08 184 6 gusting 7 2.2